Location: ??????????
(48.4699°N, 37.9573°E)
Time: 12:41:31
(UTC+00:00)

Cosmos 990 Rocket - Pass Details

Date: 20 January 2021
Orbit: 748 x 768 km, 74.0° (Epoch: 26 February)

Event Time Altitude Azimuth Distance (km) Brightness Sun altitude
Rises 16:09:10 0° 179° (S) 3,213 7.3 -19.7°
Reaches altitude 10° 16:11:38 10° 172° (S) 2,289 6.5 -20.1°
Enters shadow 16:16:09 40° 114° (ESE) 1,107 4.4 -20.8°
